Theta_e
305 305 307 308 310 311 312 312 312 312 312 312 312 313 314 315 314 315 314 314 314 315
304 304 304 306 307 308 312 311 312 309 309 311 312 311 311 311 309 311 309 309 309 310
303 304 304 305 305 306 310 309 307 307 309 310 310 309 309 308 308 307 306 306 305 305
303 303 304 304 305 307 309 308 306 307 308 309 308 307 307 306 305 304 304 304 303 304
303 304 305 306 307 309 307 307 306 307 307 306 306 306 305 304 304 303 303 304 303 303
303 304 306 308 306 306 305 305 305 304 304 304 304 304 303 302 302 302 303 303 304 304
304 305 304 304 304 304 304 303 302 301 301 302 302 303 302 301 301 301 302 302 303 305
306 304 303 302 302 302 301 301 301 301 301 301 302 303 302 301 300 300 301 302 303 305
303 302 301 300 300 300 300 300 300 300 300 299 301 300 302 304 301 302 301 301 303 304
301 300 299 300 299 299 299 300 299 299 299 299 299 299 300 303 302 301 301 301 302 302
299 299 299 299 298 299 299 299 299 298 298 298 299 299 299 301 302 301 301 301 302 302
299 298 298 298 298 298 298 299 299 299 299 299 301 298 298 300 300 300 300 302 302 303
299 298 298 299 298 300 299 299 300 300 300 301 300 297 297 300 301 300 300 302 301 300
299 298 299 300 301 301 301 301 300 300 300 301 300 300 297 298 303 301 300 299 298 298
Wind_Speed
7 5 7 9 8 7 9 8 8 7 7 7 6 7 6 2 3 4 4 6 6 5
8 10 11 12 9 8 10 8 8 8 8 7 5 5 5 3 3 2 3 3 3 2
10 12 12 10 10 9 10 7 7 8 7 6 5 5 5 3 3 2 2 3 4 3
11 12 11 9 9 9 5 5 7 7 7 6 6 6 5 4 6 5 5 5 4 4
11 11 11 10 10 5 5 4 5 6 5 6 7 6 6 6 6 6 6 5 4 6
11 12 12 8 6 5 6 5 5 6 7 6 6 6 6 5 5 4 5 5 6 5
10 8 8 6 6 6 6 6 6 7 7 7 6 6 5 4 4 4 3 3 3 5
4 5 6 7 7 6 6 5 6 6 6 6 5 5 6 4 5 4 5 5 5 6
6 6 7 6 6 6 6 6 6 7 6 5 4 10 8 6 3 4 4 4 6 7
6 7 7 5 5 5 5 4 5 5 5 5 4 8 5 8 5 4 4 4 5 5
7 7 5 5 5 4 3 5 4 5 5 4 4 8 7 8 5 4 4 4 4 5
6 5 5 6 6 4 3 4 5 3 5 6 6 10 8 6 4 4 5 5 4 5
5 5 6 6 5 3 3 3 3 4 5 9 6 12 9 7 3 5 3 5 6 9
6 7 5 4 3 4 4 5 5 6 6 7 9 9 11 8 5 2 4 5 5 6
Wind_Direction
295 293 288 279 278 279 279 280 296 301 306 318 338 341 336 320 346 349 349 358 355 330
297 300 295 286 283 284 289 286 293 308 306 315 334 339 339 347 2 21 13 18 4 336
298 294 292 292 290 286 281 281 296 302 312 320 349 2 349 12 2 53 48 36 39 8
295 296 293 289 284 281 293 292 300 311 320 344 8 15 5 10 26 35 50 31 30 28
296 300 299 294 296 308 304 307 318 326 1 12 17 18 24 21 23 24 37 39 44 35
304 312 304 311 1 343 338 339 5 19 26 25 24 20 25 16 25 26 30 25 21 17
328 4 6 360 1 3 10 24 20 32 27 19 16 17 9 0 15 16 20 29 23 3
327 1 3 12 17 16 32 23 28 29 24 14 17 14 2 353 355 352 12 4 10 358
20 20 24 21 22 21 24 23 24 22 13 1 356 350 0 22 10 5 3 358 7 20
27 38 32 20 19 15 15 11 17 6 347 336 336 353 357 29 30 23 19 16 16 45
43 36 17 10 10 3 349 360 344 346 1 359 351 7 20 24 10 22 35 30 34 54
38 22 5 3 355 353 350 352 4 2 17 20 11 10 23 34 23 35 43 43 44 86
14 357 345 344 346 341 3 6 6 19 15 21 8 10 14 31 14 54 40 43 46 46
350 340 341 342 3 17 39 23 23 26 19 35 24 18 20 24 62 44 68 50 39 34